Погода в Ортадже

Турция     36°50′38″N   28°46′09″E
темп.,
°C
ветер,
м/с
пор.,
м/с
влажн.,
%
обл.,
%
осадки,
мм/ч
давл.,
гПа
погр.,
м
23 сентября, чт
чт2300:00+21ссз44440 0.0 1008114
03:00+19ссз33470 0.0 100788
06:00+19ссз33483 0.0 1007106
09:00+23сз35402 0.0 1007390
12:00+28зсз67310 0.0 10071959
15:00+29сз78283 0.0 10051981
18:00+25ссз99300 0.0 10071154
21:00+18с46450 0.0 1008182
24 сентября, пт
пт2400:00+16с57520 0.0 1010235
03:00+14с57570 0.0 1011200
06:00+13с56620 0.0 1012145
09:00+18с46410 0.0 1013403
12:00+27зсз13190 0.0 10131142
15:00+25юз75305 0.0 1012848
18:00+24юз453717 0.0 1012594
21:00+20всв33495 0.0 1014103
25 сентября, сб
сб2500:00+18ссв33384 0.0 101562
03:00+17ссв333432 0.0 101563
06:00+17с333414 0.0 101664
09:00+22с22240 0.0 1017209
12:00+27ююз42210 0.0 1017936
15:00+26ююз44270 0.0 1017572
18:00+25ююз22300 0.0 1017286
21:00+20ссв11410 0.0 101740
26 сентября, вс
вс2600:00+19ссв22420 0.0 101745
03:00+19ссв22360 0.0 101749
06:00+19ссв22350 0.0 101650
09:00+24ссв12270 0.0 1017179
12:00+28ююз32260 0.0 1016778
15:00+28ююз332966 0.0 1015574
18:00+26ююз22360 0.0 1014262
21:00+21св11493 0.0 101433
27 сентября, пн
пн2700:00+20ссв224817 0.0 101346
03:00+20с224397 0.0 101247
06:00+20с224087 0.0 101147
09:00+24с112945 0.0 1011158
12:00+29юз42285 0.0 1010677
15:00+28юз44370 0.0 1009522
18:00+26ююз33580 0.0 1009360
21:00+22св22710 0.0 101041